Follow iAlert.com on twitter @ialertcom
Search For Active Alerts in Your Area  
  Hi Guest:  [ Sign-up / Services ] [ Login ]

Current weather by "City, St" or "zip code"  
 

Advertise Here

Current Conditions: Harbor Springs, Harbor Springs Airport, MI

Light Snow


19.0 F

Last Updated on Jan 23 2018, 11:55 am EST
Humidity: 85%
Wind Speed: N 0.0 mph
Barometer 29.64 in
Dewpoint: 15.3 F
Visibility: 2.50 mi
Precip: --
Heat Index: NA
Wind Chill: NA
Current conditions at:

Harbor Springs, Harbor Springs Airport, MI (KMGN)

Lat: 45.42 Lon: 84.913

Local Radar Image active severe weather and emergency alerts image image weather storm and storm spotter reports image weather observation monitoring service image
Local
Radar
Active
Alerts
Storm Reports Obs
Monitoring

iAlert Weather and Emergency Alert Notification Services:


ialert severe weather and emergency alerts by text message and email ialert daily weather forecast by email and text message service ialert real-time weather-observation monitoring and alert notification service ialert storm report monitoring alert notification

Observation History for Harbor Springs, Harbor Springs Airport, MI


Time Wind
(mph)
Vis
(mi)
Weather Precip (in) Temperature (F) Relative
Humidity
Wind
Chill
(°F)
Heat
Index
(°F)
Pressure
Air Dwpt altimeter
(in)
sea level
(mb)
11:55 am EST N 0.0 2.50 Light Snow -- 19.0 15.3 85% NA NA 29.64 M
10:55 am EST N 3.5 10.00 Overcast -- 19.0 15.4 86% NA NA 29.62 M
9:55 am EST N 3.5 10.00 Overcast -- 19.0 15.8 87% NA NA 29.59 M
8:55 am EST N 3.5 10.00 Overcast -- 19.0 16.5 89% NA NA 29.58 M
7:55 am EST N 4.6 10.00 Overcast -- 22.0 18.3 87% 16 NA 29.55 M
6:55 am EST NE 4.6 4.00 Fog/Mist -- 22.0 20.5 93% 16 NA 29.53 M
5:55 am EST NE 5.8 10.00 Overcast -- 24.0 22.3 95% 17 NA 29.52 M
4:55 am EST NE 6.9 7.00 Overcast -- 24.0 23.7 97% 16 NA 29.50 M
3:55 am EST NE 4.6 10.00 Overcast -- 26.0 25.7 97% 20 NA 29.48 M
2:55 am EST NE 8.1 2.50 Fog/Mist -- 28.0 27.5 99% 20 NA 29.49 M
1:55 am EST E 8.1 4.00 Fog/Mist -- 28.0 27.5 99% 20 NA 29.50 M
12:55 am EST NE 5.8 10.00 Overcast -- 29.0 27.9 96% 23 NA 29.52 M
11:55 pm EST NE 5.8 10.00 Overcast -- 29.0 28.4 96% 23 NA 29.53 M
10:55 pm EST NE 8.1 5.00 Unknown Precip -- 30.0 29.3 98% 22 NA 29.55 M
9:55 pm EST NE 9.2 5.00 Light Snow -- 30.0 29.3 99% 22 NA 29.57 M
8:55 pm EST E 10.4 3.00 Unknown Precip -- 29.0 29.3 99% 20 NA 29.58 M
7:55 pm EST NE 10.4 G 18.4 7.00 Overcast -- 29.0 28.9 99% 20 NA 29.61 M
6:55 pm EST NE 11.5 G 18.4 5.00 Unknown Precip -- 30.0 29.7 98% 20 NA 29.63 M
5:55 pm EST E 12.7 G 19.6 5.00 Light Snow -- 31.0 30.2 97% 21 NA 29.64 M
5:35 pm EST E 15.0 G 23.0 4.00 Light Snow -- 31.0 30.6 98% 20 NA 29.64 M
4:55 pm EST E 16.1 G 26.5 3.00 Light Snow -- 31.0 30.2 97% 20 NA 29.65 M
3:55 pm EST E 17.3 G 27.6 3.00 Fog/Mist -- 30.0 29.1 96% 18 NA 29.67 M
2:55 pm EST E 18.4 G 26.5 1.75 Light Snow -- 29.0 28.4 96% 17 NA 29.69 M
1:55 pm EST NE 17.3 G 28.8 0.50 Light Snow -- 29.0 28.4 96% 17 NA 29.73 M

Regional Weather Observation


Beaver Island, Beaver Island Airport, MI (KSJX)

Overcast
19.0 F

Harbor Springs, Harbor Springs Airport, MI (KMGN)

Light Snow
19.0 F

Pellston Regional Airport of Emmet County, MI (KPLN)

Light Snow
19.0 F

Mackinac Island Airport, MI (KMCD)

Light Snow
17.0 F

Cheboygan, Cheboygan County Airport, MI (KSLH)

Overcast
17.0 F

Gaylord Regional Airport, MI (KGLR)

Light Snow Fog/Mist
18.0 F

Advertise Here